Location: Darmstadt
(49.8706°N, 8.6494°E)
Time: 06:52:08
(UTC+01:00)

CZ-4 R/B - Pass Details

Date: 31 October 2020
Orbit: 532 x 598 km, 97.7° (Epoch: 03 December)

Event Time Altitude Azimuth Distance (km) Brightness Sun altitude
Rises 18:25:00 0° 151° (SSE) 2,687 4.6 -13.5°
Reaches altitude 10° 18:27:09 10° 146° (SE) 1,794 3.7 -13.9°
Maximum altitude 18:30:53 49° 71° (ENE) 698 1.4 -14.5°
Drops below altitude 10° 18:34:38 10° 356° (N) 1,797 3.9 -15.1°
Sets 18:36:47 0° 351° (N) 2,692 4.9 -15.4°
